User: anonymous   Login
Location: ?????????
(38.5999°N, 22.7695°E)
Time: 21:19:53
(UTC+00:00)
Language:

PAYLOAD A - Orbit

View from above orbital plane
View from above orbital plane
View from above satellite
View from above satellite

Ground track
Ground track

The orbit data is extracted from the following two-line orbital elements,

1 27840U 03031A   24206.43288095  .00000271  00000-0  97005-4 0  9996
2 27840  98.5341 173.7596 0096406 250.0615 109.0167 14.39398123106324
Epoch (UTC): 24 July 2024 10:23:20
Eccentricity: 0.0096406
inclination: 98.5341°
perigee height: 691 km
apogee height: 829 km
right ascension of ascending node: 173.7596°
argument of perigee: 250.0615°
revolutions per day: 14.39398123
mean anomaly at epoch: 109.0167°
orbit number at epoch: 10632

The dashed part of the orbit path shows where the satellite is in the earth's shadow,  

DLR